星链-5233 (STARLINK-5233 )

导读

STARLINK-5233是美国太空探索技术公司星链互联网卫星星座的一员,于2022年10月28日发射升空。星链计划旨在构建全球卫星互联网,为偏远地区等提供高速网络接入服务,该卫星入轨后将补充星座网络容量,提升服务覆盖范围与稳定性,支撑星链低轨卫星网络的运行与服务能力扩展。

基本信息
目录编号:
54160
目录名称:
STARLINK-5233
国际标识:
2022-141D
轨道中心:
EARTH
卫星名称:
星链-5233
卫星全名:
星链-5233 (STARLINK-5233 )
卫星状态:
在轨 (已飞行1326 天)
发射日期:
2022-10-28 UTC
国别 :
美国 (US)
星等 :
--
轨道信息
数据来源 国际轨道数据
星历时间: 2026-06-15T07:04:38+0800
6小时前
查看轨道信息
半长轴: 6917.907km
偏心率: 0.0001059
轨道倾角: 53.159°
近地点辐角 84.425°
升交点赤经 252.336°
平近点角 275.686°
近地点: 539.037km
远地点: 540.503km
周期: 95.438分钟
每日圈数: 15.088314
详细信息
固有亮度:
5
最大亮度:
2.5
卫星平台:
Starlink v1.5
覆盖范围:
全球
运营商:
太空探索技术公司
运营商所在国:
美国
制造商(研发单位):
太空探索技术公司
制造商所在国:
美国
使用方式:
暂无
卫星简介
星链(Starlink)计划是由太空探索技术公司(SpaceX)提出的一个巨型低轨卫星互联网星座项目,计划在2019年至2024年间在太空搭建由约1.2万颗卫星组成的“星链”网络,其中1584颗将部署在地球上空550千米处的近地轨道,并从2020年开始工作。该卫星仍在工作。
2D轨道图
3D轨道图
轨道高度分析图
轨道倾角分析图
轨道综合分析图
查看轨道综合分析图